Weather History for Rockland, ME

Change the Weather History Date:

Sunday, February 17, 2013

  Actual Average Record
Temperature  
Mean Temperature 22 °F -  
Max Temperature 26 °F 31 °F 46 °F (2006)
Min Temperature 19 °F 17 °F 1 °F (2004)
Degree Days  
Heating Degree Days 42    
Moisture  
Dew Point 15 °F    
Average Humidity 72    
Maximum Humidity 80    
Minimum Humidity 54    
Precipitation  
Precipitation 0.00 in - - ()
Sea Level Pressure  
Sea Level Pressure 29.30 in    
Wind  
Wind Speed 13 mph (NW)    
Max Wind Speed 31 mph    
Max Gust Speed 47 mph    
Visibility 6 miles    
Events      
Averages and records for this station are not official NWS values.
T = Trace of Precipitation, MM = Missing Value Source: NWS Daily Summary

Daily Weather History Graph

Daily Weather History Graph

Search for Another Location

Airport:

Trip Planner

Search our weather history database for the weather conditions in past years. The results will help you decide how hot, cold, wet, or windy it might be!

Date:

Astronomy

Feb. 17, 2013 Rise Set
Actual Time 6:32 AM EST 5:09 PM EST
Civil Twilight 6:02 AM EST 5:38 PM EST
Nautical Twilight 5:29 AM EST 6:12 PM EST
Astronomical Twilight 4:55 AM EST 6:45 PM EST
Moon 10:06 AM EST (2/17) 12:17 AM EST (2/17)
Length of Visible Light 11h 35m
Length of Day
10h 36m
Waxing Crescent, 49% of the Moon is Illuminated
Feb 17
Waxing Crescent
Feb 17
First Quarter
Feb 25
Full
Mar 4
Last Quarter
Mar 11
New

Hourly Weather History & Observations

Time (EST) Temp. Windchill Dew Point Humidity Pressure Visibility Wind Dir Wind Speed Gust Speed Precip Events Conditions
12:15 AM 26.6 °F 20.0 °F 21.2 °F 80% 29.72 in 10.0 mi North 5.8 mph - N/A   Clear
12:35 AM 26.6 °F 17.5 °F 21.2 °F 80% 29.70 in 10.0 mi North 9.2 mph 18.4 mph N/A   Scattered Clouds
12:55 AM 26.6 °F 16.2 °F 19.4 °F 74% 29.68 in 10.0 mi North 11.5 mph 18.4 mph N/A   Mostly Cloudy
1:15 AM 24.8 °F 16.9 °F 19.4 °F 80% 29.67 in 10.0 mi North 6.9 mph 19.6 mph N/A   Overcast
1:35 AM 24.8 °F 14.0 °F 19.4 °F 80% 29.65 in 10.0 mi North 11.5 mph 18.4 mph N/A   Overcast
1:55 AM 24.8 °F 16.1 °F 19.4 °F 80% 29.65 in 10.0 mi North 8.1 mph 17.3 mph N/A   Overcast
2:15 AM 24.8 °F 16.1 °F 17.6 °F 74% 29.65 in 10.0 mi North 8.1 mph 21.9 mph N/A   Overcast
2:35 AM 24.8 °F 16.1 °F 15.8 °F 69% 29.63 in 10.0 mi NNW 8.1 mph 16.1 mph N/A   Mostly Cloudy
2:55 AM 24.8 °F 14.6 °F 15.8 °F 69% 29.60 in 10.0 mi North 10.4 mph 20.7 mph N/A   Overcast
3:15 AM 24.8 °F 13.4 °F 15.8 °F 69% 29.60 in 10.0 mi North 12.7 mph 20.7 mph N/A   Scattered Clouds
3:35 AM 24.8 °F 14.6 °F 17.6 °F 74% 29.59 in 7.0 mi North 10.4 mph 16.1 mph N/A   Partly Cloudy
3:55 AM 23.0 °F 11.1 °F 17.6 °F 80% 29.56 in 2.0 mi NNW 12.7 mph 20.7 mph N/A   Overcast
4:15 AM 23.0 °F 13.1 °F 17.6 °F 80% 29.56 in 3.0 mi North 9.2 mph 21.9 mph N/A   Overcast
4:36 AM 23.0 °F 12.4 °F 17.6 °F 80% 29.54 in 4.0 mi NNW 10.4 mph 21.9 mph N/A   Overcast
4:55 AM 23.0 °F 13.1 °F 17.6 °F 80% 29.53 in 10.0 mi North 9.2 mph 19.6 mph N/A   Partly Cloudy
5:15 AM 23.0 °F 11.7 °F 15.8 °F 74% 29.49 in 10.0 mi NNW 11.5 mph 24.2 mph N/A   Clear
5:35 AM 23.0 °F 12.4 °F 15.8 °F 74% 29.48 in 10.0 mi North 10.4 mph 25.3 mph N/A   Scattered Clouds
5:55 AM 23.0 °F 12.4 °F 17.6 °F 80% 29.47 in 5.0 mi NNW 10.4 mph 19.6 mph N/A   Mostly Cloudy
6:15 AM 23.0 °F 10.6 °F 15.8 °F 74% 29.45 in 10.0 mi North 13.8 mph 21.9 mph N/A   Overcast
6:35 AM 23.0 °F 12.4 °F 15.8 °F 74% 29.43 in 10.0 mi North 10.4 mph 26.5 mph N/A   Scattered Clouds
7:15 AM 23.0 °F 9.6 °F 17.6 °F 80% 29.38 in 10.0 mi North 16.1 mph 26.5 mph N/A   Overcast
7:55 AM 24.8 °F 14.0 °F 17.6 °F 74% 29.36 in 10.0 mi North 11.5 mph 23.0 mph N/A   Overcast
8:15 AM 24.8 °F 12.4 °F 17.6 °F 74% 29.33 in 10.0 mi NNW 15.0 mph 26.5 mph N/A   Overcast
8:35 AM 24.8 °F 11.9 °F 15.8 °F 69% 29.31 in 10.0 mi North 16.1 mph 28.8 mph N/A   Overcast
8:55 AM 24.8 °F 12.9 °F 15.8 °F 69% 29.29 in 8.0 mi North 13.8 mph 24.2 mph N/A   Overcast
9:15 AM 24.8 °F 14.6 °F 17.6 °F 74% 29.27 in 2.5 mi NNW 10.4 mph 23.0 mph N/A   Overcast
9:35 AM 24.8 °F 14.0 °F 17.6 °F 74% 29.26 in 3.0 mi North 11.5 mph 24.2 mph N/A   Overcast
9:55 AM 24.8 °F 14.0 °F 17.6 °F 74% 29.23 in 3.0 mi NNW 11.5 mph 20.7 mph N/A   Overcast
10:15 AM 23.0 °F 9.6 °F 17.6 °F 80% 29.22 in 2.5 mi NNW 16.1 mph 26.5 mph N/A   Overcast
10:35 AM 24.8 °F 15.3 °F 17.6 °F 74% 29.20 in 5.0 mi NNW 9.2 mph 27.6 mph N/A   Overcast
10:55 AM 24.8 °F 11.5 °F 17.6 °F 74% 29.18 in 5.0 mi NW 17.3 mph 26.5 mph N/A   Overcast
11:15 AM 24.8 °F 12.4 °F 17.6 °F 74% 29.16 in 8.0 mi NW 15.0 mph 25.3 mph N/A   Overcast
11:35 AM 24.8 °F 11.5 °F 17.6 °F 74% 29.13 in 6.0 mi NW 17.3 mph 26.5 mph N/A   Overcast
11:55 AM 24.8 °F 12.9 °F 17.6 °F 74% 29.11 in 7.0 mi NW 13.8 mph 25.3 mph N/A   Overcast
12:15 PM 24.8 °F 13.4 °F 15.8 °F 69% 29.09 in 6.0 mi NNW 12.7 mph 29.9 mph N/A   Mostly Cloudy
12:35 PM 24.8 °F 12.4 °F 15.8 °F 69% 29.07 in 4.0 mi NW 15.0 mph 28.8 mph N/A   Mostly Cloudy
12:55 PM 24.8 °F 11.1 °F 17.6 °F 74% 29.05 in 4.0 mi NW 18.4 mph 33.4 mph N/A   Mostly Cloudy
1:15 PM 23.0 °F 8.3 °F 15.8 °F 74% 29.06 in 4.0 mi NW 19.6 mph 33.4 mph N/A   Scattered Clouds
1:55 PM 23.0 °F 11.1 °F 15.8 °F 74% 29.06 in 5.0 mi NW 12.7 mph 31.1 mph N/A   Mostly Cloudy
2:15 PM 23.0 °F 10.1 °F 15.8 °F 74% 29.05 in 4.0 mi NW 15.0 mph 34.5 mph N/A   Partly Cloudy
2:35 PM 21.2 °F 6.4 °F 15.8 °F 80% 29.05 in 1.8 mi NW 18.4 mph 36.8 mph N/A   Scattered Clouds
2:55 PM 23.0 °F 8.0 °F 14.0 °F 68% 29.05 in 3.0 mi NW 20.7 mph 35.7 mph N/A   Clear
3:15 PM 23.0 °F 9.6 °F 14.0 °F 68% 29.06 in 2.0 mi NW 16.1 mph 35.7 mph N/A   Clear
3:35 PM 21.2 °F 6.8 °F 15.8 °F 80% 29.07 in 4.0 mi NW 17.3 mph 32.2 mph N/A   Clear
3:55 PM 21.2 °F 6.4 °F 14.0 °F 74% 29.07 in 3.0 mi WNW 18.4 mph 47.2 mph N/A   Clear
4:15 PM 21.2 °F 7.3 °F 14.0 °F 74% 29.09 in 2.0 mi WNW 16.1 mph 42.6 mph N/A   Clear
4:35 PM 21.2 °F 6.8 °F 15.8 °F 80% 29.10 in 0.8 mi WNW 17.3 mph 34.5 mph N/A   Unknown
4:55 PM 21.2 °F 7.3 °F 15.8 °F 80% 29.11 in 1.0 mi WNW 16.1 mph 29.9 mph N/A   Clear
5:15 PM 21.2 °F 5.6 °F 15.8 °F 80% 29.12 in 1.5 mi WNW 20.7 mph 35.7 mph N/A   Clear
5:35 PM 21.2 °F 5.6 °F 14.0 °F 74% 29.14 in 2.5 mi WNW 20.7 mph 33.4 mph N/A   Clear
5:55 PM 21.2 °F 6.8 °F 12.2 °F 68% 29.15 in 3.0 mi WNW 17.3 mph 35.7 mph N/A   Clear
6:15 PM 21.2 °F 5.2 °F 12.2 °F 68% 29.16 in 5.0 mi WNW 21.9 mph 33.4 mph N/A   Clear
6:35 PM 19.4 °F 2.5 °F 10.4 °F 68% 29.17 in 6.0 mi West 23.0 mph 29.9 mph N/A   Clear
6:55 PM 19.4 °F 3.2 °F 10.4 °F 68% 29.18 in 4.0 mi WNW 20.7 mph 35.7 mph N/A   Clear
7:15 PM 19.4 °F 2.1 °F 10.4 °F 68% 29.18 in 3.0 mi WNW 24.2 mph 33.4 mph N/A   Partly Cloudy
7:35 PM 19.4 °F 0.2 °F 10.4 °F 68% 29.19 in 3.0 mi WNW 31.1 mph 39.1 mph N/A   Partly Cloudy
7:55 PM 19.4 °F 0.8 °F 10.4 °F 68% 29.19 in 5.0 mi WNW 28.8 mph 41.4 mph N/A   Clear
8:15 PM 19.4 °F 1.8 °F 10.4 °F 68% 29.21 in 5.0 mi WNW 25.3 mph 39.1 mph N/A   Clear
8:35 PM 19.4 °F 0.8 °F 10.4 °F 68% 29.21 in 5.0 mi WNW 28.8 mph 39.1 mph N/A   Clear
8:55 PM 19.4 °F 1.1 °F 8.6 °F 63% 29.22 in 7.0 mi WNW 27.6 mph 39.1 mph N/A   Clear
9:15 PM 19.4 °F 3.2 °F 8.6 °F 63% 29.24 in 10.0 mi WNW 20.7 mph 41.4 mph N/A   Clear
9:35 PM 19.4 °F 1.8 °F 8.6 °F 63% 29.25 in 10.0 mi WNW 25.3 mph 34.5 mph N/A   Clear
9:55 PM 21.2 °F 3.9 °F 6.8 °F 54% 29.25 in 5.0 mi WNW 26.5 mph 43.7 mph N/A   Clear
10:15 PM 21.2 °F 5.6 °F 6.8 °F 54% 29.27 in 8.0 mi WNW 20.7 mph 38.0 mph N/A   Clear
10:35 PM 21.2 °F 4.5 °F 6.8 °F 54% 29.28 in 9.0 mi WNW 24.2 mph 39.1 mph N/A   Clear
10:55 PM 19.4 °F 3.6 °F 6.8 °F 58% 29.29 in 10.0 mi WNW 19.6 mph 35.7 mph N/A   Clear
11:15 PM 19.4 °F 1.1 °F 6.8 °F 58% 29.30 in 10.0 mi WNW 27.6 mph 35.7 mph N/A   Clear
11:35 PM 19.4 °F 3.2 °F 6.8 °F 58% 29.31 in 10.0 mi West 20.7 mph 35.7 mph N/A   Clear
11:55 PM 19.4 °F 4.5 °F 6.8 °F 58% 29.33 in 9.0 mi WNW 17.3 mph 33.4 mph N/A   Clear